User: anonymous   Login
Location: Unspecified
(0.0000°N, 0.0000°E)
Time: 10:49:46
(UTC+00:00)
Language:

COSMOS 2463 - Orbit

View from above orbital plane
View from above orbital plane
View from above satellite
View from above satellite

Ground track
Ground track

The orbit data is extracted from the following two-line orbital elements,

1 36519U 10017A   18347.21033352  .00000096  00000-0  89414-4 0  9990
2 36519  82.9603 104.5947 0036248 177.6504 182.4833 13.71431254432039
Epoch (UTC): 13 December 2018 05:02:52
Eccentricity: 0.0036248
inclination: 82.9603°
perigee height: 968 km
apogee height: 1021 km
right ascension of ascending node: 104.5947°
argument of perigee: 177.6504°
revolutions per day: 13.71431254
mean anomaly at epoch: 182.4833°
orbit number at epoch: 43203

The dashed part of the orbit path shows where the satellite is in the earth's shadow,  

DLR